Weather in Maydan

Russia / Republic of Tatarstan     55°27′10″N   48°47′48″E
temp.,
°C
wind,
m/s
gust,
m/s
humid.,
%
clouds,
%
prec.,
mm/h
press.,
hPa
HPBL,
m
26 october, tue
tue2600:00−2wsw377917 0.0 1026195
03:00−3wsw4118239 0.0 1026289
06:00−2sw61472100 0.0 1024439
09:00+1sw71461100 0.0 1023543
12:00+4wsw81255100 0.0 1022753
15:00+4wsw71260100 0.0 1021864
18:00+2wsw6136994 0.0 1021500
21:00+1wsw61271100 0.0 1021425
27 october, wed
wed2700:00+1wsw51171100 0.0 1020376
03:00+1sw51172100 0.0 1020368
06:00+1sw61272100 0.0 1019391
09:00+3wsw61265100 0.0 1018500
12:00+5wsw71254100 0.0 1016635
15:00+6sw71353100 0.0 1015667
18:00+4sw71558100 0.0 1014555
21:00+4sw8165698 0.0 1012617
28 october, thu
thu2800:00+3sw81552100 0.0 1011655
03:00+1sw71596100 0.4 1010777
06:00+4w71397100 0.4 1009740
09:00+5w71181100 0.4 1011887
12:00+6wsw7117528 0.1 1011947
15:00+7w71068100 0.1 10111085
18:00+6wsw41074100 0.0 1012408
21:00+5wsw4981100 0.1 1012544
29 october, fri
fri2900:00+5w3692100 0.8 1012791
03:00+2nne71196100 1.7 1014507
06:00−3n712745 0.1 1019590
09:00−3nne7106669 0.1 1023784
12:000nne79525 0.0 1026980
15:000nne57480 0.0 1029904
18:00−3nne23590 0.0 103156
21:00−4ne116327 0.0 103210
30 october, sat
sat3000:00−4ssw226787 0.0 103319
03:00−3sw4959100 0.0 1031322
06:00−1sw61451100 0.0 1029440
09:00+1wsw71647100 0.0 1028548
12:00+4wsw7146080 0.0 1027497
15:00+5w612736 0.0 1027435
18:00+2wsw41191100 0.0 1027229
21:00+2wsw41195100 0.0 1027236